Regional Weather Roundup
Issued by NWS

Home | Current Version | Previous Version | Graphics & Text | Print | Product List | Glossary On
Versions: 1 2 3 4 5 6 7 8 9 10 11 12 13 14 15 16 17 18 19 20 21 22 23 24 25 26 27 28 29 30 31 32 33 34 35 36 37 38 39 40 41 42 43 44 45 46 47 48 49 50
946
ASUS43 KDTX 260101
RWRMI
MICHIGAN HOURLY REGIONAL WEATHER ROUNDUP
NATIONAL WEATHER SERVICE DETROIT/PONTIAC MI
900 PM EDT WED APR 25 2018

NOTE: "FAIR" INDICATES FEW OR NO CLOUDS BELOW 12,000 FEET WITH NO
SIGNIFICANT WEATHER AND/OR OBSTRUCTION TO VISIBILITY.

MIZ047>049-052>055-059>063-066>070-074>076-081>083-260200-
SOUTHEAST LOWER MICHIGAN

CITY           SKY/WX    TMP DP  RH WIND       PRES   REMARKS
ADRIAN         FAIR      50  34  54 N7        29.93R
ALMA           MOCLDY    45  33  62 N6        29.98S
ANN ARBOR      FAIR      51  39  63 N12       29.93R
BAD AXE        CLOUDY    43  35  72 NW7       29.97S
CARO           CLOUDY    42  35  76 N5        29.98R
DETROIT CITY   FAIR      47  37  68 N9        29.95R
DETROIT        FAIR      52  37  56 N13       29.93R
FLINT          FAIR      45  36  70 N8        29.97R
GROSSE ILE     FAIR      46  40  78 E12       29.93R
HILLSDALE      FAIR      50  32  50 NW3       29.92R
HOWELL         FAIR      47  38  71 NE3       29.96R

CITY           SKY/WX    TMP DP  RH WIND       PRES   REMARKS
JACKSON        FAIR      54  33  45 N9        29.93R
LAMBERTVILLE   FAIR      51  42  70 E5        29.93R
LANSING        FAIR      48  35  60 N9        29.97R
LAPEER         MOCLDY    42  36  78 NE5       29.97S
MASON          FAIR      50  38  62 NE7       29.95R
MONROE         FAIR      47  41  78 E12       29.93R
MT. CLEMENS    PTCLDY    44  42  93 N13G20    29.95R
PONTIAC        FAIR      46  37  71 N8        29.94R
PORT HOPE        N/A     41  35  79 W8        29.94S
PORT HURON     CLOUDY    39  36  87 N3        29.97S
TRI CITIES     CLOUDY    45  37  73 NE7       29.98S
MIDLAND        CLOUDY    46  34  64 NW6       29.98R
TROY           FAIR      48  38  66 N8        29.97R
SAGINAW HB     CLOUDY    43  36  75 NE6       29.98S
$$
MIZ043>046-050>051-056>058-064>065-071>073-077>080-260200-
SOUTHWEST LOWER MICHIGAN

CITY           SKY/WX    TMP DP  RH WIND       PRES   REMARKS
BATTLE CREEK   FAIR      48  31  51 W10       29.96R
BENTON HARBOR  FAIR      40  32  73 VRB3      30.02S
BIG RAPIDS     FAIR      44  29  57 CALM      29.98R
COLDWATER      FAIR      49  32  51 W8        29.95R
FREMONT        FAIR      44  26  48 NW10      29.99R
HOLLAND        FAIR      44  31  60 NW8       29.99S
GRAND RAPIDS   FAIR      50  33  52 NE7       29.96R
IONIA          FAIR      47  33  57 N10       29.96R
KALAMAZOO      FAIR      46  30  53 NW8       29.98R
LUDINGTON      FAIR      40  30  69 CALM      30.02S
MARSHALL       FAIR      50  33  52 NW5       29.94S
MOUNT PLEASANT FAIR      46  35  65 N5        29.98S
MUSKEGON       FAIR      46  30  53 NW14      30.00R
SOUTH HAVEN    FAIR      39  32  76 NW6       30.01S WCI  35
$$
MIZ016>042-260200-
NORTHERN LOWER MICHIGAN

CITY           SKY/WX    TMP DP  RH WIND       PRES   REMARKS
ALPENA         FAIR      41  29  62 NW7       29.96F
BEAVER ISLAND  FAIR      39  29  68 NW3       30.01S
CADILLAC       FAIR      39  29  65 N3        29.98S
CHARLEVOIX     FAIR      38  30  73 CALM      30.03F
FRANKFORT      FAIR      40  28  62 CALM      30.01F
GAYLORD        FAIR      39  29  67 NW3       29.97S
GRAYLING       FAIR      39  28  66 NW6       29.96F WCI  34
HARBOR SPRINGS FAIR      35  31  85 CALM      30.00S
HOUGHTON LAKE  FAIR      41  30  65 NW5       29.98R
MANISTEE       FAIR      41  30  65 CALM      30.01S
OSCODA         FAIR      40  32  74 W3        29.95S
PELLSTON       FAIR      38  27  64 W6        30.00S WCI  33
ROGERS CITY    FAIR      40  27  60 NW5       29.98S
TRAVERSE CITY  FAIR      43  29  57 NW3       30.01S
$$
MIZ007>008-015-260200-
EASTERN UPPER MICHIGAN

CITY           SKY/WX    TMP DP  RH WIND       PRES   REMARKS
KINROSS        FAIR      33  27  78 N10       29.99S WCI  25
MACKINAC ISLAN FAIR      39  28  64 N6        29.99S WCI  35
NEWBERRY       FAIR      34  25  71 N3        30.00F
MUNISING         N/A     33  24  69 CALM      30.01F
$$
MIZ004>006-011>014-085-260200-
CENTRAL UPPER MICHIGAN

CITY           SKY/WX    TMP DP  RH WIND       PRES   REMARKS
MANISTIQUE     FAIR      36  20  53 W3        30.01S
ESCANABA       FAIR      39  28  64 CALM      30.02R
MENOMINEE      FAIR      42  25  50 E3        30.02F
SAWYER-GWINN   CLEAR     37  21  52 CALM      30.00F
$$
MIZ001>003-009>011-084-260200-
WESTERN UPPER MICHIGAN

CITY           SKY/WX    TMP DP  RH WIND       PRES   REMARKS
IRON MOUNTAIN  FAIR      47  23  38 CALM      29.97F
HOUGHTON       FAIR      43  18  36 W6        29.98F
COPPER HARBOR    N/A     34  27  75 S3        29.99S
IRONWOOD       FAIR      46  21  37 CALM      30.00F
$$

ABBREVIATIONS USED IN REMARKS
   TC - TEMPERATURE IN CELSIUS
  WCI - WIND CHILL INDEX
   HX - HEAT INDEX
  VSB - VISIBILITY





USA.gov is the U.S. government's official web portal to all federal, state and local government web resources and services.